{"data":{"norad_id":64348,"intl_designator":"2025-126E","name":"STARLINK-34274","alt_names":[],"object_type":"PAYLOAD","status":"ACTIVE","operator":null,"country":"US","launch_date":"2025-06-13","launch_site_code":"AFWTR","launch_vehicle":null,"mission":null,"orbit_class":"UNKNOWN","rcs_meters":null,"size_class":null,"mass_kg":null,"dimensions":null,"purposes":["comms"],"wikipedia_slug":null,"has_3d_model":false,"image_url":null,"decayed_at":null,"tle_current":{"epoch":"2026-09-20T22:34:43.490496Z","epoch_age_seconds":96105,"freshness":"FRESH","line1":"1 64348U 25126E   26263.94078114  .00010697  00000+0  37593-3 0  9996","line2":"2 64348  70.0002 259.9700 0002686 260.1283  99.9589 15.29590723 69986","mean_motion":15.29590723,"eccentricity":0.0002686,"inclination_deg":70.0002,"raan_deg":259.97,"arg_perigee_deg":260.1283,"mean_anomaly_deg":99.9589,"bstar":0.00037593,"rev_number":6998,"period_min":94.142830389015,"perigee_km":475.19356538944,"apogee_km":478.87616371507,"semimajor_km":6855.1718645523,"source":"CELESTRAK","updated_at":"2026-09-21T09:00:35.316491Z"}}}